Latest Weather Observations for West Roebuck

IDW60801

Issued at 3:02 pm WST Monday 2 March 2015 (issued every 30 minutes, with the page automatically refreshed every 10 minutes)

About weather observations | Map of weather stations | Latest weather observations for WA | Other Formats
Station Details ID: 003096 Name: WEST ROEBUCK Lat: -17.90 Lon: 122.31 Height: 32.0 m
Data from the previous 72 hours. | See also: Recent months for locations in Western Australia
Date/Time
WST
Temp
°C
App
Temp
°C
Dew
Point
Rel
Hum
%
Delta-T
°C
Wind Press
QNH
hPa
Press
MSL
hPa
Rain
since 9 am
mm
Dir
 
Spd
km/h
Gust
km/h
Spd
kts
Gust
kts
02/03:00pm 27.9 - - - - SSW 6 9 3 5 - - 3.6
02/02:30pm 27.3 - - - - NW 9 17 5 9 - - 3.2
02/02:00pm 30.5 - - - - WSW 20 32 11 17 - - 0.0
02/01:30pm 32.3 - - - - WSW 22 32 12 17 - - 0.0
02/01:00pm 31.5 - - - - WSW 17 26 9 14 - - 0.0
02/12:30pm 32.1 - - - - SW 13 22 7 12 - - 0.0
02/12:00pm 32.5 - - - - SW 15 22 8 12 - - 0.0
02/11:30am 32.0 - - - - SSW 13 20 7 11 - - 0.0
02/11:00am 31.9 - - - - S 15 22 8 12 - - 0.0
02/10:30am 31.3 - - - - SW 17 28 9 15 - - 0.0
02/10:00am 31.3 - - - - SSW 17 24 9 13 - - 0.0
02/09:30am 31.1 - - - - S 9 19 5 10 - - 0.0
02/09:00am 30.2 - - - - S 11 19 6 10 - - 25.4
02/08:30am 29.2 - - - - S 7 13 4 7 - - 25.4
02/08:00am 28.3 - - - - S 9 13 5 7 - - 25.4
02/07:30am 27.6 - - - - SSW 11 17 6 9 - - 25.4
02/07:00am 27.1 - - - - SSW 9 17 5 9 - - 25.4
02/06:30am 26.3 - - - - S 7 11 4 6 - - 25.4
02/06:00am 25.8 - - - - CALM 0 0 0 0 - - 25.0
02/05:30am 25.0 - - - - CALM 0 0 0 0 - - 25.0
02/05:00am 25.1 - - - - W 2 9 1 5 - - 25.0
02/04:30am 25.1 - - - - CALM 0 0 0 0 - - 25.0
02/04:00am 25.4 - - - - WNW 6 7 3 4 - - 25.0
02/03:30am 25.3 - - - - WNW 7 9 4 5 - - 25.0
02/03:00am 25.4 - - - - WNW 6 7 3 4 - - 25.0
02/02:30am 25.7 - - - - NW 7 7 4 4 - - 25.0
02/02:00am 25.7 - - - - NNW 6 7 3 4 - - 25.0
02/01:30am 25.8 - - - - N 6 7 3 4 - - 25.0
02/01:00am 25.8 - - - - N 7 9 4 5 - - 25.0
02/12:30am 25.9 - - - - N 2 7 1 4 - - 25.0
02/12:00am 25.9 - - - - N 6 7 3 4 - - 25.0
 
Date/Time
WST
Temp
°C
App
Temp
°C
Dew
Point
Rel
Hum
%
Delta-T
°C
Wind Press
QNH
hPa
Press
MSL
hPa
Rain
since 9 am
mm
Dir
 
Spd
km/h
Gust
km/h
Spd
kts
Gust
kts
01/11:30pm 25.9 - - - - NNE 9 9 5 5 - - 25.0
01/11:00pm 25.9 - - - - NE 7 9 4 5 - - 25.0
01/10:30pm 25.8 - - - - NNE 7 9 4 5 - - 25.0
01/10:00pm 25.7 - - - - E 7 7 4 4 - - 25.0
01/09:30pm 25.7 - - - - NE 4 6 2 3 - - 25.0
01/09:00pm 25.7 - - - - CALM 0 6 0 3 - - 25.0
01/08:30pm 25.6 - - - - CALM 0 0 0 0 - - 25.0
01/08:00pm 25.7 - - - - NNE 2 6 1 3 - - 25.0
01/07:30pm 26.0 - - - - CALM 0 0 0 0 - - 25.0
01/07:00pm 26.3 - - - - NW 2 9 1 5 - - 25.0
01/06:30pm 27.0 - - - - CALM 0 6 0 3 - - 25.0
01/06:00pm 28.6 - - - - CALM 0 7 0 4 - - 25.0
01/05:30pm 29.5 - - - - WNW 7 11 4 6 - - 25.0
01/05:00pm 28.9 - - - - SW 11 13 6 7 - - 25.0
01/04:30pm 29.2 - - - - WSW 9 13 5 7 - - 25.0
01/04:00pm 28.3 - - - - WSW 2 7 1 4 - - 25.0
01/03:30pm 26.4 - - - - NW 7 11 4 6 - - 25.0
01/03:00pm 25.6 - - - - SW 6 9 3 5 - - 25.0
01/02:30pm 25.5 - - - - SE 4 9 2 5 - - 23.8
01/02:00pm 25.6 - - - - E 9 13 5 7 - - 23.4
01/01:30pm 25.7 - - - - NE 7 11 4 6 - - 22.6
01/01:00pm 25.6 - - - - ESE 6 9 3 5 - - 22.2
01/12:30pm 24.9 - - - - SW 6 7 3 4 - - 22.0
01/12:00pm 24.6 - - - - SSW 11 15 6 8 - - 21.2
01/11:30am 27.0 - - - - SW 13 19 7 10 - - 6.8
01/11:00am 30.9 - - - - SW 13 19 7 10 - - 0.2
01/10:30am 30.6 - - - - SSW 11 17 6 9 - - 0.2
01/10:00am 31.0 - - - - SW 9 17 5 9 - - 0.2
01/09:30am 30.5 - - - - NW 7 11 4 6 - - 0.0
01/09:00am 29.6 - - - - ENE 4 9 2 5 - - 2.0
01/08:30am 28.5 - - - - SE 6 13 3 7 - - 2.0
01/08:00am 27.3 - - - - SE 13 20 7 11 - - 2.0
01/07:30am 26.1 - - - - S 9 13 5 7 - - 2.0
01/07:00am 25.6 - - - - W 9 13 5 7 - - 2.0
01/06:30am 24.4 - - - - SSW 6 11 3 6 - - 2.0
01/06:00am 24.8 - - - - NW 9 30 5 16 - - 0.4
01/05:30am 24.8 - - - - NE 7 9 4 5 - - 0.0
01/05:00am 24.6 - - - - ENE 9 11 5 6 - - 0.0
01/04:30am 24.7 - - - - ESE 6 7 3 4 - - 0.0
01/04:00am 24.7 - - - - ESE 7 9 4 5 - - 0.0
01/03:30am 24.7 - - - - E 6 9 3 5 - - 0.0
01/03:00am 24.8 - - - - CALM 0 0 0 0 - - 0.0
01/02:30am 24.9 - - - - NE 7 7 4 4 - - 0.0
01/02:00am 24.9 - - - - NNE 7 9 4 5 - - 0.0
01/01:30am 25.0 - - - - N 4 6 2 3 - - 0.0
01/01:00am 25.0 - - - - N 6 9 3 5 - - 0.0
01/12:30am 25.0 - - - - CALM 0 0 0 0 - - 0.0
01/12:00am 25.0 - - - - CALM 0 0 0 0 - - 0.0
 
Date/Time
WST
Temp
°C
App
Temp
°C
Dew
Point
Rel
Hum
%
Delta-T
°C
Wind Press
QNH
hPa
Press
MSL
hPa
Rain
since 9 am
mm
Dir
 
Spd
km/h
Gust
km/h
Spd
kts
Gust
kts
28/11:30pm 25.1 - - - - CALM 0 0 0 0 - - 0.0
28/11:00pm 25.1 - - - - CALM 0 0 0 0 - - 0.0
28/10:30pm 25.1 - - - - SE 6 9 3 5 - - 0.0
28/10:00pm 25.2 - - - - E 2 7 1 4 - - 0.0
28/09:30pm 25.4 - - - - NNW 4 7 2 4 - - 0.0
28/09:00pm 25.3 - - - - CALM 0 0 0 0 - - 0.0
28/08:30pm 25.3 - - - - CALM 0 6 0 3 - - 0.0
28/08:00pm 25.2 - - - - NNE 7 9 4 5 - - 0.0
28/07:30pm 25.5 - - - - SSE 2 6 1 3 - - 0.0
28/07:00pm 25.4 - - - - SE 9 17 5 9 - - 0.0
28/06:30pm 26.0 - - - - SSE 13 19 7 10 - - 0.0
28/06:00pm 26.9 - - - - N 11 17 6 9 - - 0.0
28/05:30pm 28.0 - - - - NE 13 22 7 12 - - 0.0
28/05:00pm 29.3 - - - - WNW 11 15 6 8 - - 0.0
28/04:30pm 29.4 - - - - WNW 13 19 7 10 - - 0.0
28/04:00pm 29.5 - - - - W 13 17 7 9 - - 0.0
28/03:30pm 30.6 - - - - WNW 11 17 6 9 - - 0.0
28/03:00pm 33.0 - - - - W 17 26 9 14 - - 0.0
28/02:30pm 33.7 - - - - W 17 22 9 12 - - 0.0
28/02:00pm 33.8 - - - - W 17 24 9 13 - - 0.0
28/01:30pm 33.9 - - - - WSW 13 22 7 12 - - 0.0
28/01:00pm 32.8 - - - - W 13 22 7 12 - - 0.0
28/12:30pm 32.3 - - - - WNW 17 22 9 12 - - 0.0
28/12:00pm 32.4 - - - - WSW 13 22 7 12 - - 0.0
28/11:30am 31.6 - - - - SW 9 17 5 9 - - 0.0
28/11:00am 32.1 - - - - SSE 13 19 7 10 - - 0.0
28/10:30am 32.1 - - - - SW 7 11 4 6 - - 0.0
28/10:00am 30.9 - - - - W 11 15 6 8 - - 0.0
28/09:30am 32.3 - - - - SE 9 15 5 8 - - 0.0
28/09:00am 31.2 - - - - S 6 11 3 6 - - 10.8
28/08:30am 30.2 - - - - WSW 6 11 3 6 - - 10.8
28/08:00am 30.0 - - - - S 7 11 4 6 - - 10.8
28/07:30am 29.1 - - - - CALM 0 0 0 0 - - 10.8
28/07:00am 27.9 - - - - E 2 6 1 3 - - 10.8
28/06:30am 26.4 - - - - NNW 4 7 2 4 - - 10.8
28/06:00am 25.8 - - - - NNW 7 9 4 5 - - 10.8
28/05:30am 25.8 - - - - N 7 9 4 5 - - 10.8
28/05:00am 25.7 - - - - NNW 7 7 4 4 - - 10.8
28/04:30am 25.6 - - - - NNW 7 7 4 4 - - 10.8
28/04:00am 25.8 - - - - N 7 9 4 5 - - 10.8
28/03:30am 25.7 - - - - N 7 9 4 5 - - 10.8
28/03:00am 25.6 - - - - NW 9 13 5 7 - - 10.8
28/02:30am 25.5 - - - - NNW 7 9 4 5 - - 10.8
28/02:00am 25.4 - - - - CALM 0 0 0 0 - - 10.8
28/01:30am 25.5 - - - - NW 7 9 4 5 - - 10.8
28/01:00am 25.5 - - - - NNW 7 9 4 5 - - 10.8
28/12:30am 25.5 - - - - N 7 9 4 5 - - 10.8
28/12:00am 25.2 - - - - N 6 7 3 4 - - 10.8
 
Date/Time
WST
Temp
°C
App
Temp
°C
Dew
Point
Rel
Hum
%
Delta-T
°C
Wind Press
QNH
hPa
Press
MSL
hPa
Rain
since 9 am
mm
Dir
 
Spd
km/h
Gust
km/h
Spd
kts
Gust
kts
27/11:30pm 25.0 - - - - CALM 0 0 0 0 - - 10.8
27/11:00pm 25.0 - - - - ENE 7 9 4 5 - - 10.6
27/10:30pm 25.0 - - - - S 6 9 3 5 - - 10.6
27/10:00pm 25.0 - - - - ENE 7 9 4 5 - - 10.6
27/09:30pm 25.1 - - - - CALM 0 0 0 0 - - 10.6
27/09:00pm 25.0 - - - - SSW 7 11 4 6 - - 10.6
27/08:30pm 25.2 - - - - NW 2 7 1 4 - - 10.6
27/08:00pm 25.1 - - - - NNE 7 11 4 6 - - 10.6
27/07:30pm 25.0 - - - - ENE 7 9 4 5 - - 10.6
27/07:00pm 25.0 - - - - NE 7 11 4 6 - - 10.6
27/06:30pm 25.0 - - - - NNE 4 9 2 5 - - 10.6
27/06:00pm 24.8 - - - - NNW 6 7 3 4 - - 10.6
27/05:30pm 24.6 - - - - ENE 9 15 5 8 - - 10.2
27/05:00pm 24.8 - - - - ENE 13 20 7 11 - - 10.2
27/04:30pm 25.5 - - - - E 9 17 5 9 - - 10.2
27/04:00pm 29.5 - - - - CALM 0 6 0 3 - - 7.2
27/03:30pm 30.6 - - - - W 9 13 5 7 - - 7.2

Other Formats:

Comma delimited format used in spreadsheet applications
http://www.bom.gov.au/fwo/IDW60801/IDW60801.95204.axf

JavaScript Object Notation format (JSON) in row-major order
http://www.bom.gov.au/fwo/IDW60801/IDW60801.95204.json